| time (UTC) | temp F | wind direction | speed MPH | gust MPH | rain 1hr in | rain 24hr in | rain mn in | humidity % | barometer mb |
| 20260901194954 | 98 | 125 | 2.0 | 3.0 | 0.00 | 0.00 | 0.00 | 42 | 1014.0 |
| 20260901194454 | 98 | 82 | 2.0 | 3.0 | 0.00 | 0.00 | 0.00 | 42 | 1014.0 |
| 20260901193956 | 98 | 103 | 2.0 | 4.0 | 0.00 | 0.00 | 0.00 | 42 | 1014.0 |
| 20260901193454 | 97 | 196 | 1.0 | 2.0 | 0.00 | 0.00 | 0.00 | 46 | 1014.0 |
| 20260901192954 | 96 | 143 | 1.0 | 3.0 | 0.00 | 0.00 | 0.00 | 46 | 1014.0 |
| 20260901192455 | 95 | 106 | 1.0 | 2.0 | 0.00 | 0.00 | 0.00 | 45 | 1015.0 |
| 20260901191955 | 95 | 176 | 3.0 | 4.0 | 0.00 | 0.00 | 0.00 | 45 | 1015.0 |
| 20260901191454 | 94 | 336 | 1.0 | 2.0 | 0.00 | 0.00 | 0.00 | 47 | 1015.0 |
| 20260901190955 | 95 | 78 | 1.0 | 2.0 | 0.00 | 0.00 | 0.00 | 45 | 1015.0 |
| 20260901190455 | 96 | 53 | 1.0 | 2.0 | 0.00 | 0.00 | 0.00 | 44 | 1015.0 |
| 20260901185954 | 95 | 132 | 1.0 | 2.0 | 0.00 | 0.00 | 0.00 | 48 | 1015.0 |
| 20260901185454 | 95 | 96 | 0.0 | 1.0 | 0.00 | 0.00 | 0.00 | 48 | 1015.0 |
| 20260901184955 | 96 | 83 | 1.0 | 2.0 | 0.00 | 0.00 | 0.00 | 46 | 1015.0 |
| 20260901184455 | 97 | 126 | 2.0 | 3.0 | 0.00 | 0.00 | 0.00 | 44 | 1015.0 |
| 20260901183954 | 97 | 122 | 1.0 | 1.0 | 0.00 | 0.00 | 0.00 | 45 | 1015.0 |
| 20260901183455 | 96 | 84 | 1.0 | 1.0 | 0.00 | 0.00 | 0.00 | 47 | 1015.0 |
| 20260901182955 | 95 | 131 | 1.0 | 2.0 | 0.00 | 0.00 | 0.00 | 49 | 1015.0 |
| 20260901182455 | 94 | 148 | 0.0 | 1.0 | 0.00 | 0.00 | 0.00 | 48 | 1015.0 |
| 20260901181957 | 94 | 123 | 0.0 | 1.0 | 0.00 | 0.00 | 0.00 | 49 | 1016.0 |
| 20260901181455 | 94 | 115 | 1.0 | 2.0 | 0.00 | 0.00 | 0.00 | 48 | 1016.0 |
| 20260901180954 | 95 | 134 | 2.0 | 3.0 | 0.00 | 0.00 | 0.00 | 47 | 1016.0 |
| 20260901180454 | 95 | 159 | 2.0 | 3.0 | 0.00 | 0.00 | 0.00 | 48 | 1016.0 |
| 20260901175955 | 94 | 92 | 2.0 | 2.0 | 0.00 | 0.00 | 0.00 | 47 | 1016.0 |
| 20260901175454 | 93 | 102 | 2.0 | 4.0 | 0.00 | 0.00 | 0.00 | 49 | 1016.0 |
| 20260901174956 | 94 | 91 | 1.0 | 2.0 | 0.00 | 0.00 | 0.00 | 49 | 1016.0 |
| 20260901174455 | 95 | 238 | 1.0 | 2.0 | 0.00 | 0.00 | 0.00 | 48 | 1016.0 |
| 20260901173955 | 94 | 130 | 1.0 | 2.0 | 0.00 | 0.00 | 0.00 | 49 | 1016.0 |
| 20260901173454 | 94 | 149 | 1.0 | 2.0 | 0.00 | 0.00 | 0.00 | 51 | 1016.0 |
| 20260901172954 | 93 | 115 | 2.0 | 3.0 | 0.00 | 0.00 | 0.00 | 51 | 1016.0 |
| 20260901172455 | 94 | 304 | 2.0 | 3.0 | 0.00 | 0.00 | 0.00 | 49 | 1016.0 |
| 20260901171954 | 94 | 172 | 4.0 | 6.0 | 0.00 | 0.00 | 0.00 | 50 | 1016.0 |
| 20260901171455 | 94 | 83 | 1.0 | 2.0 | 0.00 | 0.00 | 0.00 | 52 | 1017.0 |
| 20260901170954 | 94 | 117 | 1.0 | 3.0 | 0.00 | 0.00 | 0.00 | 51 | 1017.0 |
| 20260901170454 | 93 | 138 | 2.0 | 3.0 | 0.00 | 0.00 | 0.00 | 52 | 1017.0 |
| 20260901165955 | 93 | 165 | 1.0 | 3.0 | 0.00 | 0.00 | 0.00 | 53 | 1017.0 |
| 20260901165455 | 93 | 213 | 2.0 | 3.0 | 0.00 | 0.00 | 0.00 | 53 | 1017.0 |
| 20260901164954 | 93 | 81 | 1.0 | 2.0 | 0.00 | 0.00 | 0.00 | 52 | 1017.0 |
| 20260901164455 | 92 | 210 | 1.0 | 2.0 | 0.00 | 0.00 | 0.00 | 53 | 1017.0 |
| 20260901163956 | 92 | 121 | 0.0 | 2.0 | 0.00 | 0.00 | 0.00 | 54 | 1017.0 |
| 20260901163454 | 92 | 135 | 2.0 | 4.0 | 0.00 | 0.00 | 0.00 | 53 | 1017.0 |
| 20260901162954 | 91 | 217 | 2.0 | 4.0 | 0.00 | 0.00 | 0.00 | 55 | 1017.0 |
| 20260901162454 | 91 | 104 | 1.0 | 2.0 | 0.00 | 0.00 | 0.00 | 55 | 1017.0 |
| 20260901161955 | 91 | 172 | 2.0 | 4.0 | 0.00 | 0.00 | 0.00 | 56 | 1017.0 |
| 20260901161455 | 91 | 203 | 3.0 | 5.0 | 0.00 | 0.00 | 0.00 | 55 | 1017.0 |
| 20260901160956 | 91 | 165 | 2.0 | 4.0 | 0.00 | 0.00 | 0.00 | 56 | 1017.0 |
| 20260901160455 | 91 | 134 | 1.0 | 2.0 | 0.00 | 0.00 | 0.00 | 60 | 1017.0 |
| 20260901155955 | 91 | 140 | 0.0 | 1.0 | 0.00 | 0.00 | 0.00 | 58 | 1017.0 |
| 20260901155456 | 91 | 93 | 0.0 | 1.0 | 0.00 | 0.00 | 0.00 | 57 | 1017.0 |
| 20260901154958 | 91 | 111 | 0.0 | 1.0 | 0.00 | 0.00 | 0.00 | 60 | 1017.0 |
| 20260901154454 | 90 | 76 | 0.0 | 1.0 | 0.00 | 0.00 | 0.00 | 59 | 1017.0 |
| 20260901153955 | 89 | 133 | 0.0 | 2.0 | 0.00 | 0.00 | 0.00 | 59 | 1017.0 |
| 20260901153454 | 89 | 179 | 2.0 | 3.0 | 0.00 | 0.00 | 0.00 | 60 | 1017.0 |
| 20260901152955 | 88 | 130 | 0.0 | 1.0 | 0.00 | 0.00 | 0.00 | 61 | 1017.0 |
| 20260901152456 | 87 | 121 | 0.0 | 1.0 | 0.00 | 0.00 | 0.00 | 65 | 1017.0 |
| 20260901151955 | 87 | 217 | 2.0 | 4.0 | 0.00 | 0.00 | 0.00 | 65 | 1017.0 |
| 20260901151455 | 87 | 235 | 2.0 | 4.0 | 0.00 | 0.00 | 0.00 | 66 | 1017.0 |
| 20260901150955 | 86 | 244 | 1.0 | 3.0 | 0.00 | 0.00 | 0.00 | 68 | 1017.0 |
| 20260901150455 | 86 | 203 | 0.0 | 1.0 | 0.00 | 0.00 | 0.00 | 70 | 1017.0 |
| 20260901145955 | 85 | 335 | 1.0 | 2.0 | 0.00 | 0.00 | 0.00 | 69 | 1017.0 |
| 20260901145455 | 85 | 84 | 1.0 | 2.0 | 0.00 | 0.00 | 0.00 | 71 | 1017.0 |
| 20260901144955 | 84 | 188 | 1.0 | 2.0 | 0.00 | 0.00 | 0.00 | 73 | 1017.0 |
| 20260901144455 | 84 | 248 | 1.0 | 2.0 | 0.00 | 0.00 | 0.00 | 74 | 1017.0 |
| 20260901143954 | 83 | 97 | 0.0 | 2.0 | 0.00 | 0.00 | 0.00 | 75 | 1017.0 |
| 20260901143454 | 83 | 178 | 2.0 | 2.0 | 0.00 | 0.00 | 0.00 | 76 | 1017.0 |
| 20260901142955 | 83 | 183 | 2.0 | 2.0 | 0.00 | 0.00 | 0.00 | 76 | 1017.0 |
| 20260901142456 | 83 | 272 | 2.0 | 3.0 | 0.00 | 0.00 | 0.00 | 76 | 1017.0 |
| 20260901141954 | 82 | 215 | 1.0 | 2.0 | 0.00 | 0.00 | 0.00 | 78 | 1017.0 |
| 20260901141457 | 82 | 165 | 2.0 | 3.0 | 0.00 | 0.00 | 0.00 | 78 | 1017.0 |
| 20260901140955 | 82 | 299 | 1.0 | 1.0 | 0.00 | 0.00 | 0.00 | 78 | 1017.0 |
| 20260901140457 | 81 | 202 | 2.0 | 3.0 | 0.00 | 0.00 | 0.00 | 80 | 1018.0 |
| 20260901135955 | 81 | 195 | 1.0 | 2.0 | 0.00 | 0.00 | 0.00 | 81 | 1018.0 |
| 20260901135455 | 81 | 177 | 1.0 | 2.0 | 0.00 | 0.00 | 0.00 | 81 | 1018.0 |
| 20260901134956 | 80 | 280 | 0.0 | 1.0 | 0.00 | 0.00 | 0.00 | 82 | 1018.0 |
| 20260901134454 | 80 | 220 | 1.0 | 2.0 | 0.00 | 0.00 | 0.00 | 83 | 1017.0 |
| 20260901133955 | 80 | 184 | 0.0 | 2.0 | 0.00 | 0.00 | 0.00 | 83 | 1017.0 |
| 20260901133455 | 80 | 172 | 1.0 | 2.0 | 0.00 | 0.00 | 0.00 | 84 | 1017.0 |
| 20260901132956 | 79 | 190 | 1.0 | 2.0 | 0.00 | 0.00 | 0.00 | 84 | 1017.0 |
| 20260901132455 | 79 | 242 | 0.0 | 1.0 | 0.00 | 0.00 | 0.00 | 85 | 1017.0 |
| 20260901131955 | 79 | 291 | 0.0 | 1.0 | 0.00 | 0.00 | 0.00 | 85 | 1017.0 |
| 20260901131454 | 79 | 190 | 0.0 | 0.0 | 0.00 | 0.00 | 0.00 | 86 | 1017.0 |
| 20260901130955 | 78 | 221 | 0.0 | 1.0 | 0.00 | 0.00 | 0.00 | 86 | 1017.0 |
| 20260901130456 | 78 | 154 | 0.0 | 0.0 | 0.00 | 0.00 | 0.00 | 86 | 1017.0 |
| 20260901125954 | 78 | 193 | 1.0 | 2.0 | 0.00 | 0.00 | 0.00 | 87 | 1017.0 |
| 20260901125505 | 78 | 285 | 0.0 | 1.0 | 0.00 | 0.00 | 0.00 | 88 | 1017.0 |
| 20260901124954 | 77 | 168 | 0.0 | 2.0 | 0.00 | 0.00 | 0.00 | 88 | 1017.0 |
| 20260901124454 | 77 | 49 | 0.0 | 1.0 | 0.00 | 0.00 | 0.00 | 88 | 1017.0 |
| 20260901123954 | 77 | 194 | 0.0 | 1.0 | 0.00 | 0.00 | 0.00 | 88 | 1017.0 |
| 20260901123454 | 77 | 199 | 0.0 | 0.0 | 0.00 | 0.00 | 0.00 | 88 | 1017.0 |
| 20260901122955 | 77 | 360 | 0.0 | 0.0 | 0.00 | 0.00 | 0.00 | 88 | 1017.0 |
| 20260901122454 | 77 | 360 | 0.0 | 0.0 | 0.00 | 0.00 | 0.00 | 88 | 1017.0 |
| 20260901121954 | 77 | 194 | 0.0 | 1.0 | 0.00 | 0.00 | 0.00 | 88 | 1017.0 |
| 20260901121454 | 77 | 360 | 0.0 | 0.0 | 0.00 | 0.00 | 0.00 | 87 | 1017.0 |
| 20260901120954 | 78 | 243 | 0.0 | 1.0 | 0.00 | 0.00 | 0.00 | 87 | 1017.0 |
| 20260901120454 | 78 | 360 | 0.0 | 0.0 | 0.00 | 0.00 | 0.00 | 87 | 1017.0 |
| 20260901115956 | 78 | 360 | 0.0 | 0.0 | 0.00 | 0.00 | 0.00 | 87 | 1017.0 |
| 20260901115455 | 78 | 235 | 0.0 | 1.0 | 0.00 | 0.00 | 0.00 | 87 | 1016.0 |
| 20260901114954 | 78 | 244 | 1.0 | 2.0 | 0.00 | 0.00 | 0.00 | 87 | 1016.0 |
| 20260901114454 | 78 | 245 | 0.0 | 1.0 | 0.00 | 0.00 | 0.00 | 86 | 1016.0 |
| 20260901113955 | 78 | 360 | 0.0 | 0.0 | 0.00 | 0.00 | 0.00 | 86 | 1017.0 |
| 20260901113454 | 78 | 240 | 0.0 | 1.0 | 0.00 | 0.00 | 0.00 | 86 | 1017.0 |
| 20260901112954 | 78 | 319 | 0.0 | 0.0 | 0.00 | 0.00 | 0.00 | 86 | 1017.0 |
| 20260901112455 | 78 | 211 | 1.0 | 2.0 | 0.00 | 0.00 | 0.00 | 86 | 1017.0 |
| 20260901111954 | 78 | 224 | 0.0 | 1.0 | 0.00 | 0.00 | 0.00 | 85 | 1017.0 |
| 20260901111454 | 78 | 242 | 0.0 | 2.0 | 0.00 | 0.00 | 0.00 | 85 | 1017.0 |
| 20260901110954 | 79 | 166 | 1.0 | 2.0 | 0.00 | 0.00 | 0.00 | 85 | 1017.0 |
| 20260901110454 | 79 | 238 | 0.0 | 2.0 | 0.00 | 0.00 | 0.00 | 84 | 1017.0 |
| 20260901105955 | 79 | 190 | 1.0 | 2.0 | 0.00 | 0.00 | 0.00 | 84 | 1017.0 |
| 20260901105013 | 79 | 150 | 1.0 | 2.0 | 0.00 | 0.00 | 0.00 | 84 | 1016.0 |
| 20260901104454 | 79 | 196 | 2.0 | 3.0 | 0.00 | 0.00 | 0.00 | 84 | 1016.0 |
| 20260901103954 | 79 | 191 | 1.0 | 2.0 | 0.00 | 0.00 | 0.00 | 84 | 1016.0 |
| 20260901103456 | 79 | 244 | 2.0 | 4.0 | 0.00 | 0.00 | 0.00 | 84 | 1016.0 |
| 20260901102956 | 79 | 277 | 1.0 | 2.0 | 0.00 | 0.00 | 0.00 | 84 | 1016.0 |
| 20260901102455 | 79 | 278 | 1.0 | 2.0 | 0.00 | 0.00 | 0.00 | 85 | 1016.0 |
| 20260901101956 | 79 | 184 | 0.0 | 1.0 | 0.00 | 0.00 | 0.00 | 84 | 1016.0 |
| 20260901101456 | 79 | 215 | 0.0 | 2.0 | 0.00 | 0.00 | 0.00 | 84 | 1016.0 |
| 20260901100955 | 79 | 178 | 0.0 | 1.0 | 0.00 | 0.00 | 0.00 | 84 | 1016.0 |
| 20260901100454 | 80 | 190 | 0.0 | 1.0 | 0.00 | 0.00 | 0.00 | 83 | 1016.0 |
| 20260901095955 | 80 | 217 | 2.0 | 3.0 | 0.00 | 0.00 | 0.00 | 83 | 1016.0 |
| 20260901095454 | 80 | 163 | 2.0 | 4.0 | 0.00 | 0.00 | 0.00 | 83 | 1016.0 |
| 20260901094954 | 80 | 183 | 2.0 | 4.0 | 0.00 | 0.00 | 0.00 | 83 | 1016.0 |
| 20260901094454 | 80 | 166 | 2.0 | 4.0 | 0.00 | 0.00 | 0.00 | 83 | 1016.0 |
| 20260901093954 | 80 | 176 | 1.0 | 2.0 | 0.00 | 0.00 | 0.00 | 82 | 1016.0 |
| 20260901093454 | 80 | 166 | 2.0 | 4.0 | 0.00 | 0.00 | 0.00 | 82 | 1016.0 |
| 20260901092954 | 80 | 163 | 2.0 | 5.0 | 0.00 | 0.00 | 0.00 | 82 | 1016.0 |
| 20260901092454 | 80 | 206 | 1.0 | 2.0 | 0.00 | 0.00 | 0.00 | 82 | 1016.0 |
| 20260901091955 | 80 | 190 | 1.0 | 3.0 | 0.00 | 0.00 | 0.00 | 81 | 1016.0 |
| 20260901091454 | 80 | 184 | 1.0 | 2.0 | 0.00 | 0.00 | 0.00 | 81 | 1016.0 |
| 20260901090955 | 80 | 196 | 2.0 | 4.0 | 0.00 | 0.00 | 0.00 | 81 | 1016.0 |
| 20260901090454 | 80 | 216 | 1.0 | 2.0 | 0.00 | 0.00 | 0.00 | 80 | 1016.0 |
| 20260901085955 | 80 | 164 | 0.0 | 1.0 | 0.00 | 0.00 | 0.00 | 80 | 1016.0 |
| 20260901085455 | 80 | 170 | 1.0 | 3.0 | 0.00 | 0.00 | 0.00 | 80 | 1016.0 |
| 20260901084954 | 80 | 124 | 0.0 | 1.0 | 0.00 | 0.00 | 0.00 | 79 | 1016.0 |
| 20260901084454 | 80 | 98 | 1.0 | 2.0 | 0.00 | 0.00 | 0.00 | 79 | 1016.0 |
| 20260901083954 | 80 | 126 | 0.0 | 2.0 | 0.00 | 0.00 | 0.00 | 79 | 1016.0 |
| 20260901083455 | 80 | 137 | 0.0 | 2.0 | 0.00 | 0.00 | 0.00 | 78 | 1016.0 |
| 20260901082955 | 80 | 113 | 0.0 | 1.0 | 0.00 | 0.00 | 0.00 | 78 | 1016.0 |
| 20260901082454 | 80 | 134 | 0.0 | 2.0 | 0.00 | 0.00 | 0.00 | 78 | 1016.0 |
| 20260901081955 | 81 | 100 | 1.0 | 2.0 | 0.00 | 0.00 | 0.00 | 78 | 1016.0 |
| 20260901081455 | 81 | 152 | 0.0 | 2.0 | 0.00 | 0.00 | 0.00 | 77 | 1016.0 |
| 20260901080954 | 81 | 166 | 0.0 | 2.0 | 0.00 | 0.00 | 0.00 | 77 | 1016.0 |
| 20260901080454 | 81 | 189 | 0.0 | 1.0 | 0.00 | 0.00 | 0.00 | 76 | 1016.0 |
| 20260901075954 | 81 | 174 | 0.0 | 1.0 | 0.00 | 0.00 | 0.00 | 76 | 1016.0 |
| 20260901075454 | 81 | 183 | 1.0 | 2.0 | 0.00 | 0.00 | 0.00 | 75 | 1016.0 |
| 20260901074958 | 81 | 187 | 1.0 | 2.0 | 0.00 | 0.00 | 0.00 | 75 | 1016.0 |
| 20260901074454 | 82 | 176 | 0.0 | 1.0 | 0.00 | 0.00 | 0.00 | 74 | 1016.0 |
| 20260901073954 | 82 | 162 | 2.0 | 3.0 | 0.00 | 0.00 | 0.00 | 74 | 1016.0 |
| 20260901073454 | 82 | 170 | 2.0 | 3.0 | 0.00 | 0.00 | 0.00 | 73 | 1016.0 |
| 20260901072954 | 82 | 157 | 0.0 | 1.0 | 0.00 | 0.00 | 0.00 | 73 | 1016.0 |
| 20260901072454 | 82 | 174 | 1.0 | 2.0 | 0.00 | 0.00 | 0.00 | 73 | 1016.0 |
| 20260901071954 | 82 | 148 | 1.0 | 2.0 | 0.00 | 0.00 | 0.00 | 73 | 1016.0 |
| 20260901071454 | 82 | 169 | 1.0 | 2.0 | 0.00 | 0.00 | 0.00 | 73 | 1016.0 |
| 20260901070957 | 82 | 217 | 1.0 | 1.0 | 0.00 | 0.00 | 0.00 | 73 | 1016.0 |
| 20260901070454 | 82 | 166 | 0.0 | 2.0 | 0.00 | 0.00 | 0.00 | 73 | 1016.0 |
| 20260901065954 | 82 | 45 | 0.0 | 1.0 | 0.00 | 0.00 | 0.00 | 73 | 1016.0 |
| 20260901065455 | 82 | 166 | 0.0 | 2.0 | 0.00 | 0.00 | 0.00 | 74 | 1016.0 |
| 20260901064954 | 82 | 129 | 1.0 | 2.0 | 0.00 | 0.00 | 0.00 | 74 | 1016.0 |
| 20260901064457 | 82 | 152 | 1.0 | 2.0 | 0.00 | 0.00 | 0.00 | 74 | 1016.0 |
| 20260901063954 | 83 | 177 | 1.0 | 2.0 | 0.00 | 0.00 | 0.00 | 73 | 1016.0 |
| 20260901063454 | 83 | 184 | 1.0 | 3.0 | 0.00 | 0.00 | 0.00 | 73 | 1016.0 |
| 20260901062954 | 83 | 136 | 1.0 | 2.0 | 0.00 | 0.00 | 0.00 | 72 | 1016.0 |
| 20260901062454 | 83 | 122 | 0.0 | 1.0 | 0.00 | 0.00 | 0.00 | 72 | 1016.0 |
| 20260901061954 | 83 | 126 | 1.0 | 3.0 | 0.00 | 0.00 | 0.00 | 71 | 1016.0 |
| 20260901061455 | 83 | 176 | 1.0 | 4.0 | 0.00 | 0.00 | 0.00 | 71 | 1016.0 |
| 20260901060954 | 83 | 173 | 2.0 | 4.0 | 0.00 | 0.00 | 0.00 | 70 | 1016.0 |
| 20260901060454 | 83 | 147 | 1.0 | 3.0 | 0.00 | 0.00 | 0.00 | 70 | 1016.0 |
| 20260901055954 | 83 | 157 | 1.0 | 3.0 | 0.00 | 0.00 | 0.00 | 69 | 1016.0 |
| 20260901055454 | 83 | 95 | 1.0 | 2.0 | 0.00 | 0.00 | 0.00 | 69 | 1016.0 |
| 20260901054954 | 84 | 180 | 3.0 | 7.0 | 0.00 | 0.00 | 0.00 | 68 | 1016.0 |
| 20260901054455 | 84 | 162 | 2.0 | 4.0 | 0.00 | 0.00 | 0.00 | 67 | 1016.0 |
| 20260901054002 | 84 | 115 | 2.0 | 3.0 | 0.00 | 0.00 | 0.00 | 67 | 1016.0 |
| 20260901053455 | 84 | 129 | 1.0 | 2.0 | 0.00 | 0.00 | 0.00 | 66 | 1016.0 |
| 20260901052954 | 84 | 149 | 1.0 | 2.0 | 0.00 | 0.00 | 0.00 | 66 | 1016.0 |
| 20260901052455 | 84 | 151 | 2.0 | 4.0 | 0.00 | 0.00 | 0.00 | 65 | 1016.0 |
| 20260901051955 | 85 | 119 | 2.0 | 3.0 | 0.00 | 0.00 | 0.00 | 65 | 1016.0 |
| 20260901051454 | 85 | 201 | 2.0 | 4.0 | 0.00 | 0.00 | 0.00 | 65 | 1016.0 |
| 20260901050955 | 85 | 153 | 1.0 | 2.0 | 0.00 | 0.00 | 0.00 | 65 | 1016.0 |
| 20260901050455 | 85 | 142 | 2.0 | 3.0 | 0.00 | 0.00 | 0.00 | 65 | 1016.0 |
| 20260901045954 | 85 | 181 | 2.0 | 4.0 | 0.00 | 0.00 | 0.00 | 65 | 1015.0 |
| 20260901045454 | 85 | 178 | 2.0 | 4.0 | 0.00 | 0.00 | 0.00 | 64 | 1015.0 |
| 20260901044954 | 85 | 182 | 3.0 | 6.0 | 0.00 | 0.00 | 0.00 | 64 | 1015.0 |
| 20260901044459 | 85 | 139 | 1.0 | 3.0 | 0.00 | 0.00 | 0.00 | 63 | 1015.0 |
| 20260901043954 | 85 | 129 | 1.0 | 2.0 | 0.00 | 0.00 | 0.00 | 63 | 1015.0 |
| 20260901043454 | 86 | 134 | 2.0 | 4.0 | 0.00 | 0.00 | 0.00 | 63 | 1015.0 |
| 20260901042955 | 86 | 101 | 1.0 | 2.0 | 0.00 | 0.00 | 0.00 | 62 | 1015.0 |
| 20260901042455 | 86 | 123 | 2.0 | 5.0 | 0.00 | 0.00 | 0.00 | 62 | 1015.0 |
| 20260901041955 | 86 | 113 | 1.0 | 1.0 | 0.00 | 0.00 | 0.00 | 62 | 1015.0 |
| 20260901041457 | 86 | 125 | 2.0 | 4.0 | 0.00 | 0.00 | 0.00 | 61 | 1015.0 |
| 20260901040954 | 86 | 107 | 1.0 | 4.0 | 0.00 | 0.00 | 0.00 | 61 | 1015.0 |
| 20260901040454 | 86 | 107 | 2.0 | 3.0 | 0.00 | 0.00 | 0.00 | 60 | 1015.0 |
| 20260901035955 | 87 | 134 | 1.0 | 3.0 | 0.00 | 0.00 | 0.00 | 60 | 1015.0 |
| 20260901035454 | 87 | 87 | 1.0 | 3.0 | 0.00 | 0.00 | 0.00 | 59 | 1015.0 |
| 20260901034954 | 87 | 109 | 2.0 | 3.0 | 0.00 | 0.00 | 0.00 | 59 | 1015.0 |
| 20260901034454 | 87 | 167 | 1.0 | 2.0 | 0.00 | 0.00 | 0.00 | 58 | 1015.0 |
| 20260901033954 | 87 | 139 | 1.0 | 2.0 | 0.00 | 0.00 | 0.00 | 57 | 1015.0 |
| 20260901033454 | 87 | 118 | 1.0 | 3.0 | 0.00 | 0.00 | 0.00 | 57 | 1015.0 |
| 20260901032955 | 88 | 108 | 2.0 | 4.0 | 0.00 | 0.00 | 0.00 | 56 | 1015.0 |
| 20260901032455 | 88 | 95 | 2.0 | 3.0 | 0.00 | 0.00 | 0.00 | 55 | 1015.0 |
| 20260901031954 | 88 | 103 | 2.0 | 3.0 | 0.00 | 0.00 | 0.00 | 54 | 1015.0 |
| 20260901031454 | 88 | 122 | 2.0 | 3.0 | 0.00 | 0.00 | 0.00 | 53 | 1015.0 |
| 20260901030957 | 88 | 110 | 2.0 | 4.0 | 0.00 | 0.00 | 0.00 | 52 | 1015.0 |
| 20260901030458 | 89 | 118 | 2.0 | 4.0 | 0.00 | 0.00 | 0.00 | 52 | 1015.0 |
| 20260901025955 | 89 | 121 | 2.0 | 4.0 | 0.00 | 0.00 | 0.00 | 51 | 1015.0 |
| 20260901025456 | 89 | 100 | 2.0 | 5.0 | 0.00 | 0.00 | 0.00 | 49 | 1015.0 |
| 20260901024954 | 89 | 132 | 2.0 | 4.0 | 0.00 | 0.00 | 0.00 | 48 | 1015.0 |
| 20260901024455 | 89 | 110 | 1.0 | 4.0 | 0.00 | 0.00 | 0.00 | 47 | 1015.0 |
| 20260901023954 | 89 | 121 | 2.0 | 5.0 | 0.00 | 0.00 | 0.00 | 46 | 1015.0 |
| 20260901023456 | 89 | 119 | 1.0 | 3.0 | 0.00 | 0.00 | 0.00 | 45 | 1014.0 |
| 20260901022954 | 89 | 118 | 1.0 | 2.0 | 0.00 | 0.00 | 0.00 | 44 | 1014.0 |
| 20260901022454 | 89 | 129 | 0.0 | 1.0 | 0.00 | 0.00 | 0.00 | 43 | 1014.0 |
| 20260901021955 | 89 | 102 | 0.0 | 2.0 | 0.00 | 0.00 | 0.00 | 44 | 1014.0 |
| 20260901021455 | 90 | 86 | 0.0 | 1.0 | 0.00 | 0.00 | 0.00 | 43 | 1014.0 |
| 20260901020954 | 90 | 93 | 1.0 | 2.0 | 0.00 | 0.00 | 0.00 | 42 | 1014.0 |
| 20260901020454 | 90 | 175 | 0.0 | 1.0 | 0.00 | 0.00 | 0.00 | 42 | 1014.0 |
| 20260901015954 | 90 | 116 | 0.0 | 1.0 | 0.00 | 0.00 | 0.00 | 42 | 1014.0 |
| 20260901015454 | 91 | 131 | 0.0 | 2.0 | 0.00 | 0.00 | 0.00 | 42 | 1014.0 |
| 20260901014955 | 91 | 183 | 0.0 | 1.0 | 0.00 | 0.00 | 0.00 | 42 | 1014.0 |
| 20260901014455 | 91 | 101 | 0.0 | 1.0 | 0.00 | 0.00 | 0.00 | 42 | 1014.0 |
| 20260901013954 | 91 | 104 | 0.0 | 1.0 | 0.00 | 0.00 | 0.00 | 42 | 1014.0 |
| 20260901013454 | 92 | 170 | 0.0 | 1.0 | 0.00 | 0.00 | 0.00 | 41 | 1014.0 |
| 20260901012954 | 92 | 360 | 0.0 | 0.0 | 0.00 | 0.00 | 0.00 | 41 | 1014.0 |
| 20260901012455 | 92 | 79 | 1.0 | 2.0 | 0.00 | 0.00 | 0.00 | 40 | 1014.0 |
| 20260901011954 | 92 | 104 | 1.0 | 2.0 | 0.00 | 0.00 | 0.00 | 40 | 1014.0 |
| 20260901011456 | 92 | 121 | 1.0 | 2.0 | 0.00 | 0.00 | 0.00 | 40 | 1014.0 |
| 20260901010955 | 93 | 141 | 0.0 | 2.0 | 0.00 | 0.00 | 0.00 | 40 | 1014.0 |
| 20260901010454 | 93 | 128 | 0.0 | 2.0 | 0.00 | 0.00 | 0.00 | 39 | 1014.0 |
| 20260901005955 | 93 | 96 | 0.0 | 2.0 | 0.00 | 0.00 | 0.00 | 39 | 1014.0 |
| 20260901005454 | 94 | 103 | 1.0 | 2.0 | 0.00 | 0.00 | 0.00 | 39 | 1014.0 |
| 20260901004956 | 94 | 134 | 0.0 | 1.0 | 0.00 | 0.00 | 0.00 | 39 | 1013.0 |
| 20260901004456 | 94 | 131 | 1.0 | 2.0 | 0.00 | 0.00 | 0.00 | 38 | 1013.0 |
| 20260901003954 | 94 | 96 | 1.0 | 2.0 | 0.00 | 0.00 | 0.00 | 37 | 1014.0 |
| 20260901003455 | 95 | 117 | 1.0 | 2.0 | 0.00 | 0.00 | 0.00 | 37 | 1013.0 |
| 20260901002955 | 95 | 114 | 1.0 | 2.0 | 0.00 | 0.00 | 0.00 | 37 | 1013.0 |
| 20260901002454 | 96 | 100 | 2.0 | 4.0 | 0.00 | 0.00 | 0.00 | 37 | 1013.0 |
| 20260901001955 | 96 | 100 | 2.0 | 4.0 | 0.00 | 0.00 | 0.00 | 36 | 1013.0 |
| 20260901001455 | 96 | 134 | 1.0 | 2.0 | 0.00 | 0.00 | 0.00 | 36 | 1013.0 |
| 20260901000954 | 97 | 122 | 1.0 | 2.0 | 0.00 | 0.00 | 0.00 | 35 | 1013.0 |
| 20260901000454 | 97 | 131 | 2.0 | 3.0 | 0.00 | 0.00 | 0.00 | 34 | 1013.0 |
| 20260831235954 | 97 | 99 | 2.0 | 5.0 | 0.00 | 0.00 | 0.00 | 34 | 1013.0 |
| 20260831235455 | 98 | 96 | 2.0 | 3.0 | 0.00 | 0.00 | 0.00 | 35 | 1013.0 |
| 20260831234955 | 98 | 164 | 1.0 | 2.0 | 0.00 | 0.00 | 0.00 | 36 | 1013.0 |
| 20260831234455 | 98 | 114 | 1.0 | 2.0 | 0.00 | 0.00 | 0.00 | 35 | 1013.0 |
| 20260831233955 | 99 | 159 | 2.0 | 2.0 | 0.00 | 0.00 | 0.00 | 35 | 1013.0 |
| 20260831233455 | 99 | 152 | 2.0 | 4.0 | 0.00 | 0.00 | 0.00 | 34 | 1013.0 |
| 20260831232954 | 99 | 141 | 2.0 | 3.0 | 0.00 | 0.00 | 0.00 | 34 | 1013.0 |
| 20260831232454 | 99 | 103 | 2.0 | 3.0 | 0.00 | 0.00 | 0.00 | 34 | 1013.0 |
| 20260831231956 | 98 | 114 | 1.0 | 2.0 | 0.00 | 0.00 | 0.00 | 34 | 1013.0 |
| 20260831231456 | 99 | 121 | 2.0 | 3.0 | 0.00 | 0.00 | 0.00 | 35 | 1013.0 |
| 20260831230954 | 99 | 90 | 2.0 | 3.0 | 0.00 | 0.00 | 0.00 | 34 | 1013.0 |
| 20260831230455 | 99 | 160 | 2.0 | 2.0 | 0.00 | 0.00 | 0.00 | 35 | 1013.0 |
| 20260831225957 | 99 | 164 | 2.0 | 3.0 | 0.00 | 0.00 | 0.00 | 34 | 1013.0 |
| 20260831225455 | 99 | 139 | 1.0 | 2.0 | 0.00 | 0.00 | 0.00 | 35 | 1013.0 |
| 20260831224958 | 99 | 174 | 3.0 | 4.0 | 0.00 | 0.00 | 0.00 | 35 | 1013.0 |
| 20260831224454 | 100 | 101 | 2.0 | 4.0 | 0.00 | 0.00 | 0.00 | 34 | 1013.0 |
| 20260831223954 | 100 | 143 | 2.0 | 3.0 | 0.00 | 0.00 | 0.00 | 35 | 1013.0 |
| 20260831223455 | 100 | 131 | 2.0 | 2.0 | 0.00 | 0.00 | 0.00 | 36 | 1013.0 |
| 20260831222955 | 100 | 136 | 1.0 | 2.0 | 0.00 | 0.00 | 0.00 | 34 | 1013.0 |
| 20260831222455 | 100 | 173 | 2.0 | 4.0 | 0.00 | 0.00 | 0.00 | 35 | 1013.0 |
| 20260831221956 | 100 | 187 | 2.0 | 4.0 | 0.00 | 0.00 | 0.00 | 35 | 1014.0 |
| 20260831221455 | 100 | 89 | 2.0 | 4.0 | 0.00 | 0.00 | 0.00 | 33 | 1014.0 |
| 20260831220955 | 100 | 174 | 2.0 | 3.0 | 0.00 | 0.00 | 0.00 | 32 | 1013.0 |
| 20260831220457 | 100 | 151 | 2.0 | 4.0 | 0.00 | 0.00 | 0.00 | 33 | 1014.0 |
| 20260831215955 | 99 | 174 | 2.0 | 4.0 | 0.00 | 0.00 | 0.00 | 33 | 1014.0 |
| 20260831215454 | 100 | 122 | 1.0 | 2.0 | 0.00 | 0.00 | 0.00 | 33 | 1014.0 |
| 20260831214954 | 100 | 93 | 3.0 | 4.0 | 0.00 | 0.00 | 0.00 | 31 | 1014.0 |
| 20260831214455 | 100 | 82 | 1.0 | 2.0 | 0.00 | 0.00 | 0.00 | 34 | 1014.0 |
| 20260831213955 | 100 | 162 | 2.0 | 3.0 | 0.00 | 0.00 | 0.00 | 36 | 1014.0 |
| 20260831213455 | 100 | 111 | 2.0 | 3.0 | 0.00 | 0.00 | 0.00 | 35 | 1014.0 |
| 20260831212955 | 100 | 165 | 2.0 | 3.0 | 0.00 | 0.00 | 0.00 | 32 | 1014.0 |
| 20260831212454 | 99 | 176 | 2.0 | 5.0 | 0.00 | 0.00 | 0.00 | 34 | 1014.0 |
| 20260831211954 | 99 | 126 | 2.0 | 3.0 | 0.00 | 0.00 | 0.00 | 37 | 1014.0 |
| 20260831211454 | 99 | 141 | 2.0 | 5.0 | 0.00 | 0.00 | 0.00 | 38 | 1014.0 |
| 20260831210955 | 98 | 206 | 1.0 | 3.0 | 0.00 | 0.00 | 0.00 | 38 | 1014.0 |
| 20260831210455 | 98 | 178 | 2.0 | 5.0 | 0.00 | 0.00 | 0.00 | 36 | 1014.0 |
| 20260831205954 | 97 | 118 | 2.0 | 4.0 | 0.00 | 0.00 | 0.00 | 38 | 1014.0 |
| 20260831205455 | 97 | 129 | 1.0 | 2.0 | 0.00 | 0.00 | 0.00 | 40 | 1014.0 |
| 20260831204955 | 98 | 107 | 2.0 | 3.0 | 0.00 | 0.00 | 0.00 | 38 | 1015.0 |
| 20260831204454 | 98 | 187 | 3.0 | 5.0 | 0.00 | 0.00 | 0.00 | 38 | 1015.0 |
| 20260831203954 | 97 | 176 | 3.0 | 5.0 | 0.00 | 0.00 | 0.00 | 39 | 1015.0 |
| 20260831203455 | 96 | 119 | 1.0 | 2.0 | 0.00 | 0.00 | 0.00 | 41 | 1015.0 |
| 20260831202954 | 96 | 159 | 2.0 | 4.0 | 0.00 | 0.00 | 0.00 | 41 | 1015.0 |
| 20260831202455 | 96 | 168 | 2.0 | 3.0 | 0.00 | 0.00 | 0.00 | 41 | 1015.0 |
| 20260831201955 | 96 | 146 | 2.0 | 3.0 | 0.00 | 0.00 | 0.00 | 40 | 1015.0 |
| 20260831201455 | 96 | 104 | 1.0 | 2.0 | 0.00 | 0.00 | 0.00 | 40 | 1015.0 |
| 20260831200954 | 96 | 120 | 1.0 | 2.0 | 0.00 | 0.00 | 0.00 | 42 | 1015.0 |
| 20260831200455 | 97 | 102 | 2.0 | 3.0 | 0.00 | 0.00 | 0.00 | 42 | 1015.0 |
| 20260831195954 | 98 | 125 | 2.0 | 3.0 | 0.00 | 0.00 | 0.00 | 42 | 1015.0 |